| time (UTC) | temp C | wind direction | speed KPH | gust KPH | rain 1hr cm | rain 24hr cm | rain mn cm | humidity % | barometer mb |
| 20260508203031 | 22 | 323 | 17.7 | 27.4 | 0.00 | 0.00 | 0.00 | 20 | 1015.0 |
| 20260508202531 | 22 | 320 | 14.5 | 32.2 | 0.00 | 0.00 | 0.00 | 20 | 1015.0 |
| 20260508202032 | 22 | 333 | 19.3 | 29.0 | 0.00 | 0.00 | 0.00 | 21 | 1015.0 |
| 20260508201532 | 22 | 334 | 16.1 | 30.6 | 0.00 | 0.00 | 0.00 | 21 | 1015.0 |
| 20260508201029 | 22 | 317 | 14.5 | 27.4 | 0.00 | 0.00 | 0.00 | 21 | 1015.0 |
| 20260508200529 | 22 | 313 | 11.3 | 25.7 | 0.00 | 0.00 | 0.00 | 21 | 1016.0 |
| 20260508200031 | 22 | 334 | 20.9 | 38.6 | 0.00 | 0.00 | 0.00 | 21 | 1016.0 |
| 20260508195530 | 22 | 318 | 17.7 | 35.4 | 0.00 | 0.00 | 0.00 | 22 | 1016.0 |
| 20260508195031 | 23 | 330 | 17.7 | 22.5 | 0.00 | 0.00 | 0.00 | 21 | 1016.0 |
| 20260508194531 | 22 | 31 | 17.7 | 30.6 | 0.00 | 0.00 | 0.00 | 21 | 1015.0 |
| 20260508194030 | 22 | 318 | 22.5 | 35.4 | 0.00 | 0.00 | 0.00 | 22 | 1016.0 |
| 20260508193531 | 22 | 336 | 17.7 | 29.0 | 0.00 | 0.00 | 0.00 | 21 | 1016.0 |
| 20260508193029 | 22 | 322 | 17.7 | 25.7 | 0.00 | 0.00 | 0.00 | 21 | 1016.0 |
| 20260508192532 | 22 | 327 | 16.1 | 27.4 | 0.00 | 0.00 | 0.00 | 22 | 1016.0 |
| 20260508192031 | 22 | 325 | 14.5 | 32.2 | 0.00 | 0.00 | 0.00 | 22 | 1016.0 |
| 20260508191533 | 22 | 5 | 6.4 | 16.1 | 0.00 | 0.00 | 0.00 | 24 | 1016.0 |
| 20260508191031 | 22 | 328 | 20.9 | 30.6 | 0.00 | 0.00 | 0.00 | 22 | 1016.0 |
| 20260508190529 | 22 | 31 | 20.9 | 30.6 | 0.00 | 0.00 | 0.00 | 24 | 1016.0 |
| 20260508190033 | 22 | 282 | 9.7 | 16.1 | 0.00 | 0.00 | 0.00 | 24 | 1016.0 |
| 20260508185532 | 22 | 357 | 11.3 | 19.3 | 0.00 | 0.00 | 0.00 | 24 | 1016.0 |
| 20260508185033 | 22 | 32 | 17.7 | 30.6 | 0.00 | 0.00 | 0.00 | 24 | 1016.0 |
| 20260508184531 | 22 | 339 | 14.5 | 25.7 | 0.00 | 0.00 | 0.00 | 26 | 1016.0 |
| 20260508184031 | 22 | 7 | 11.3 | 20.9 | 0.00 | 0.00 | 0.00 | 26 | 1016.0 |
| 20260508183531 | 22 | 1 | 16.1 | 27.4 | 0.00 | 0.00 | 0.00 | 24 | 1016.0 |
| 20260508183032 | 22 | 17 | 16.1 | 27.4 | 0.00 | 0.00 | 0.00 | 27 | 1016.0 |
| 20260508182531 | 21 | 14 | 12.9 | 27.4 | 0.00 | 0.00 | 0.00 | 27 | 1016.0 |
| 20260508182031 | 21 | 311 | 14.5 | 24.1 | 0.00 | 0.00 | 0.00 | 27 | 1016.0 |
| 20260508181532 | 21 | 295 | 8.0 | 14.5 | 0.00 | 0.00 | 0.00 | 28 | 1016.0 |
| 20260508181029 | 21 | 313 | 16.1 | 27.4 | 0.00 | 0.00 | 0.00 | 29 | 1016.0 |
| 20260508180531 | 21 | 1 | 8.0 | 19.3 | 0.00 | 0.00 | 0.00 | 28 | 1017.0 |
| 20260508180031 | 21 | 359 | 14.5 | 25.7 | 0.00 | 0.00 | 0.00 | 28 | 1017.0 |
| 20260508175533 | 21 | 285 | 11.3 | 19.3 | 0.00 | 0.00 | 0.00 | 27 | 1016.0 |
| 20260508175033 | 21 | 314 | 16.1 | 27.4 | 0.00 | 0.00 | 0.00 | 28 | 1017.0 |
| 20260508174533 | 21 | 338 | 14.5 | 29.0 | 0.00 | 0.00 | 0.00 | 27 | 1017.0 |
| 20260508174031 | 21 | 314 | 11.3 | 22.5 | 0.00 | 0.00 | 0.00 | 27 | 1017.0 |
| 20260508173531 | 21 | 337 | 12.9 | 19.3 | 0.00 | 0.00 | 0.00 | 25 | 1017.0 |
| 20260508173032 | 21 | 4 | 14.5 | 25.7 | 0.00 | 0.00 | 0.00 | 27 | 1017.0 |
| 20260508172532 | 21 | 317 | 1.6 | 9.7 | 0.00 | 0.00 | 0.00 | 29 | 1017.0 |
| 20260508172032 | 20 | 312 | 4.8 | 8.0 | 0.00 | 0.00 | 0.00 | 35 | 1017.0 |
| 20260508171533 | 20 | 335 | 6.4 | 12.9 | 0.00 | 0.00 | 0.00 | 36 | 1017.0 |
| 20260508171033 | 20 | 319 | 11.3 | 12.9 | 0.00 | 0.00 | 0.00 | 35 | 1017.0 |
| 20260508170533 | 20 | 354 | 0.0 | 4.8 | 0.00 | 0.00 | 0.00 | 41 | 1017.0 |
| 20260508170033 | 20 | 163 | 4.8 | 11.3 | 0.00 | 0.00 | 0.00 | 40 | 1017.0 |
| 20260508165532 | 20 | 138 | 4.8 | 8.0 | 0.00 | 0.00 | 0.00 | 42 | 1017.0 |
| 20260508165034 | 20 | 166 | 0.0 | 0.0 | 0.00 | 0.00 | 0.00 | 40 | 1017.0 |
| 20260508164533 | 20 | 117 | 0.0 | 0.0 | 0.00 | 0.00 | 0.00 | 42 | 1017.0 |
| 20260508164034 | 20 | 66 | 4.8 | 9.7 | 0.00 | 0.00 | 0.00 | 40 | 1017.0 |
| 20260508163533 | 20 | 227 | 1.6 | 4.8 | 0.00 | 0.00 | 0.00 | 44 | 1017.0 |
| 20260508163032 | 20 | 341 | 1.6 | 6.4 | 0.00 | 0.00 | 0.00 | 42 | 1017.0 |
| 20260508162533 | 20 | 249 | 0.0 | 3.2 | 0.00 | 0.00 | 0.00 | 43 | 1017.0 |
| 20260508162033 | 19 | 0 | 0.0 | 0.0 | 0.00 | 0.00 | 0.00 | 45 | 1017.0 |
| 20260508161534 | 19 | 334 | 3.2 | 6.4 | 0.00 | 0.00 | 0.00 | 43 | 1017.0 |
| 20260508161033 | 19 | 75 | 4.8 | 6.4 | 0.00 | 0.00 | 0.00 | 44 | 1017.0 |
| 20260508160533 | 19 | 0 | 0.0 | 0.0 | 0.00 | 0.00 | 0.00 | 45 | 1016.0 |
| 20260508160034 | 18 | 227 | 0.0 | 0.0 | 0.00 | 0.00 | 0.00 | 44 | 1016.0 |
| 20260508155531 | 18 | 18 | 4.8 | 8.0 | 0.00 | 0.00 | 0.00 | 42 | 1016.0 |
| 20260508155033 | 18 | 333 | 11.3 | 11.3 | 0.00 | 0.00 | 0.00 | 40 | 1016.0 |
| 20260508154535 | 18 | 315 | 3.2 | 6.4 | 0.00 | 0.00 | 0.00 | 41 | 1016.0 |
| 20260508154033 | 18 | 7 | 1.6 | 4.8 | 0.00 | 0.00 | 0.00 | 41 | 1016.0 |
| 20260508153531 | 18 | 150 | 4.8 | 6.4 | 0.00 | 0.00 | 0.00 | 42 | 1016.0 |
| 20260508153034 | 18 | 28 | 3.2 | 9.7 | 0.00 | 0.00 | 0.00 | 42 | 1016.0 |
| 20260508152532 | 18 | 293 | 0.0 | 1.6 | 0.00 | 0.00 | 0.00 | 42 | 1016.0 |
| 20260508152033 | 18 | 67 | 1.6 | 4.8 | 0.00 | 0.00 | 0.00 | 41 | 1016.0 |
| 20260508151531 | 17 | 344 | 3.2 | 8.0 | 0.00 | 0.00 | 0.00 | 44 | 1016.0 |
| 20260508151031 | 17 | 344 | 0.0 | 0.0 | 0.00 | 0.00 | 0.00 | 44 | 1016.0 |
| 20260508150531 | 17 | 335 | 6.4 | 8.0 | 0.00 | 0.00 | 0.00 | 46 | 1016.0 |
| 20260508150030 | 17 | 129 | 1.6 | 3.2 | 0.00 | 0.00 | 0.00 | 45 | 1016.0 |
| 20260508145532 | 17 | 0 | 0.0 | 0.0 | 0.00 | 0.00 | 0.00 | 45 | 1016.0 |
| 20260508145031 | 17 | 136 | 3.2 | 6.4 | 0.00 | 0.00 | 0.00 | 45 | 1016.0 |
| 20260508144533 | 17 | 130 | 0.0 | 0.0 | 0.00 | 0.00 | 0.00 | 47 | 1016.0 |
| 20260508144031 | 17 | 0 | 0.0 | 0.0 | 0.00 | 0.00 | 0.00 | 47 | 1016.0 |
| 20260508143531 | 17 | 24 | 4.8 | 6.4 | 0.00 | 0.00 | 0.00 | 48 | 1016.0 |
| 20260508143029 | 17 | 0 | 0.0 | 0.0 | 0.00 | 0.00 | 0.00 | 50 | 1016.0 |
| 20260508142531 | 17 | 100 | 1.6 | 3.2 | 0.00 | 0.00 | 0.00 | 50 | 1016.0 |
| 20260508142030 | 17 | 111 | 6.4 | 6.4 | 0.00 | 0.00 | 0.00 | 49 | 1016.0 |
| 20260508141533 | 16 | 0 | 0.0 | 0.0 | 0.00 | 0.00 | 0.00 | 48 | 1016.0 |
| 20260508141032 | 16 | 74 | 6.4 | 8.0 | 0.00 | 0.00 | 0.00 | 50 | 1016.0 |
| 20260508140529 | 15 | 48 | 1.6 | 3.2 | 0.00 | 0.00 | 0.00 | 53 | 1016.0 |
| 20260508140033 | 15 | 63 | 4.8 | 4.8 | 0.00 | 0.00 | 0.00 | 54 | 1016.0 |
| 20260508135534 | 14 | 83 | 4.8 | 6.4 | 0.00 | 0.00 | 0.00 | 50 | 1016.0 |
| 20260508135031 | 13 | 0 | 0.0 | 0.0 | 0.00 | 0.00 | 0.00 | 53 | 1016.0 |
| 20260508134531 | 12 | 0 | 0.0 | 0.0 | 0.00 | 0.00 | 0.00 | 55 | 1016.0 |
| 20260508134037 | 12 | 0 | 0.0 | 0.0 | 0.00 | 0.00 | 0.00 | 57 | 1016.0 |
| 20260508133530 | 11 | 0 | 0.0 | 0.0 | 0.00 | 0.00 | 0.00 | 59 | 1016.0 |
| 20260508133031 | 11 | 106 | 6.4 | 8.0 | 0.00 | 0.00 | 0.00 | 60 | 1016.0 |
| 20260508132534 | 10 | 74 | 6.4 | 6.4 | 0.00 | 0.00 | 0.00 | 63 | 1016.0 |
| 20260508132031 | 10 | 94 | 0.0 | 0.0 | 0.00 | 0.00 | 0.00 | 64 | 1016.0 |
| 20260508131532 | 10 | 91 | 3.2 | 6.4 | 0.00 | 0.00 | 0.00 | 67 | 1016.0 |
| 20260508131032 | 9 | 107 | 6.4 | 8.0 | 0.00 | 0.00 | 0.00 | 69 | 1016.0 |
| 20260508130531 | 9 | 0 | 0.0 | 0.0 | 0.00 | 0.00 | 0.00 | 70 | 1016.0 |
| 20260508130031 | 9 | 34 | 0.0 | 0.0 | 0.00 | 0.00 | 0.00 | 70 | 1016.0 |
| 20260508125534 | 8 | 0 | 0.0 | 0.0 | 0.00 | 0.00 | 0.00 | 72 | 1015.0 |
| 20260508125033 | 8 | 0 | 0.0 | 0.0 | 0.00 | 0.00 | 0.00 | 71 | 1015.0 |
| 20260508124532 | 8 | 0 | 0.0 | 0.0 | 0.00 | 0.00 | 0.00 | 71 | 1015.0 |
| 20260508124031 | 8 | 0 | 0.0 | 0.0 | 0.00 | 0.00 | 0.00 | 70 | 1015.0 |
| 20260508123531 | 9 | 0 | 0.0 | 0.0 | 0.00 | 0.00 | 0.00 | 67 | 1015.0 |
| 20260508123034 | 9 | 0 | 0.0 | 0.0 | 0.00 | 0.00 | 0.00 | 66 | 1015.0 |
| 20260508122531 | 9 | 0 | 0.0 | 0.0 | 0.00 | 0.00 | 0.00 | 65 | 1015.0 |
| 20260508122033 | 9 | 0 | 0.0 | 0.0 | 0.00 | 0.00 | 0.00 | 65 | 1015.0 |
| 20260508121531 | 10 | 54 | 4.8 | 6.4 | 0.00 | 0.00 | 0.00 | 64 | 1015.0 |
| 20260508121030 | 10 | 103 | 6.4 | 8.0 | 0.00 | 0.00 | 0.00 | 64 | 1015.0 |
| 20260508120532 | 10 | 107 | 3.2 | 4.8 | 0.00 | 0.00 | 0.00 | 64 | 1015.0 |
| 20260508120034 | 9 | 68 | 4.8 | 6.4 | 0.00 | 0.00 | 0.00 | 64 | 1015.0 |
| 20260508115531 | 9 | 0 | 0.0 | 0.0 | 0.00 | 0.00 | 0.00 | 64 | 1015.0 |
| 20260508115032 | 9 | 57 | 6.4 | 8.0 | 0.00 | 0.00 | 0.00 | 64 | 1015.0 |
| 20260508114531 | 9 | 0 | 0.0 | 0.0 | 0.00 | 0.00 | 0.00 | 63 | 1015.0 |
| 20260508114031 | 9 | 84 | 0.0 | 3.2 | 0.00 | 0.00 | 0.00 | 63 | 1015.0 |
| 20260508113531 | 9 | 0 | 0.0 | 0.0 | 0.00 | 0.00 | 0.00 | 63 | 1015.0 |
| 20260508113031 | 9 | 0 | 0.0 | 0.0 | 0.00 | 0.00 | 0.00 | 64 | 1015.0 |
| 20260508112533 | 9 | 0 | 1.6 | 1.6 | 0.00 | 0.00 | 0.00 | 63 | 1015.0 |
| 20260508112031 | 10 | 0 | 0.0 | 1.6 | 0.00 | 0.00 | 0.00 | 63 | 1015.0 |
| 20260508111531 | 10 | 53 | 4.8 | 6.4 | 0.00 | 0.00 | 0.00 | 62 | 1015.0 |
| 20260508111029 | 10 | 114 | 6.4 | 8.0 | 0.00 | 0.00 | 0.00 | 62 | 1015.0 |
| 20260508110531 | 10 | 127 | 6.4 | 8.0 | 0.00 | 0.00 | 0.00 | 62 | 1015.0 |
| 20260508110032 | 10 | 59 | 0.0 | 0.0 | 0.00 | 0.00 | 0.00 | 63 | 1015.0 |
| 20260508105530 | 10 | 37 | 3.2 | 4.8 | 0.00 | 0.00 | 0.00 | 62 | 1015.0 |
| 20260508105032 | 10 | 52 | 0.0 | 0.0 | 0.00 | 0.00 | 0.00 | 62 | 1014.0 |
| 20260508104529 | 10 | 32 | 3.2 | 3.2 | 0.00 | 0.00 | 0.00 | 62 | 1015.0 |
| 20260508104030 | 10 | 75 | 0.0 | 0.0 | 0.00 | 0.00 | 0.00 | 63 | 1015.0 |
| 20260508103530 | 10 | 0 | 0.0 | 0.0 | 0.00 | 0.00 | 0.00 | 61 | 1014.0 |
| 20260508103033 | 10 | 99 | 6.4 | 8.0 | 0.00 | 0.00 | 0.00 | 61 | 1014.0 |
| 20260508102532 | 10 | 68 | 6.4 | 6.4 | 0.00 | 0.00 | 0.00 | 63 | 1014.0 |
| 20260508102031 | 10 | 0 | 0.0 | 0.0 | 0.00 | 0.00 | 0.00 | 62 | 1014.0 |
| 20260508101530 | 10 | 0 | 0.0 | 0.0 | 0.00 | 0.00 | 0.00 | 62 | 1014.0 |
| 20260508101031 | 10 | 0 | 1.6 | 4.8 | 0.00 | 0.00 | 0.00 | 60 | 1014.0 |
| 20260508100533 | 10 | 6 | 4.8 | 4.8 | 0.00 | 0.00 | 0.00 | 60 | 1014.0 |
| 20260508100031 | 10 | 58 | 6.4 | 8.0 | 0.00 | 0.00 | 0.00 | 61 | 1014.0 |
| 20260508095531 | 10 | 120 | 8.0 | 8.0 | 0.00 | 0.00 | 0.00 | 59 | 1014.0 |
| 20260508095030 | 10 | 98 | 8.0 | 8.0 | 0.00 | 0.00 | 0.00 | 61 | 1014.0 |
| 20260508094530 | 10 | 97 | 6.4 | 6.4 | 0.00 | 0.00 | 0.00 | 62 | 1014.0 |
| 20260508094031 | 10 | 58 | 4.8 | 6.4 | 0.00 | 0.00 | 0.00 | 62 | 1014.0 |
| 20260508093531 | 10 | 0 | 0.0 | 0.0 | 0.00 | 0.00 | 0.00 | 62 | 1014.0 |
| 20260508093032 | 10 | 0 | 0.0 | 0.0 | 0.00 | 0.00 | 0.00 | 62 | 1014.0 |
| 20260508092531 | 10 | 72 | 1.6 | 4.8 | 0.00 | 0.00 | 0.00 | 61 | 1014.0 |
| 20260508092032 | 10 | 0 | 0.0 | 0.0 | 0.00 | 0.00 | 0.00 | 61 | 1014.0 |
| 20260508091531 | 10 | 98 | 8.0 | 8.0 | 0.00 | 0.00 | 0.00 | 60 | 1014.0 |
| 20260508091032 | 10 | 90 | 6.4 | 8.0 | 0.00 | 0.00 | 0.00 | 61 | 1014.0 |
| 20260508090531 | 10 | 91 | 8.0 | 8.0 | 0.00 | 0.00 | 0.00 | 62 | 1014.0 |
| 20260508090034 | 10 | 77 | 1.6 | 3.2 | 0.00 | 0.00 | 0.00 | 62 | 1014.0 |
| 20260508085532 | 11 | 0 | 0.0 | 0.0 | 0.00 | 0.00 | 0.00 | 62 | 1014.0 |
| 20260508085033 | 11 | 85 | 4.8 | 6.4 | 0.00 | 0.00 | 0.00 | 59 | 1014.0 |
| 20260508084532 | 11 | 80 | 0.0 | 0.0 | 0.00 | 0.00 | 0.00 | 57 | 1014.0 |
| 20260508084029 | 10 | 48 | 6.4 | 6.4 | 0.00 | 0.00 | 0.00 | 59 | 1014.0 |
| 20260508083529 | 11 | 53 | 4.8 | 6.4 | 0.00 | 0.00 | 0.00 | 58 | 1014.0 |
| 20260508083031 | 11 | 0 | 0.0 | 0.0 | 0.00 | 0.00 | 0.00 | 60 | 1014.0 |
| 20260508082531 | 11 | 85 | 8.0 | 8.0 | 0.00 | 0.00 | 0.00 | 60 | 1014.0 |
| 20260508082031 | 11 | 92 | 6.4 | 6.4 | 0.00 | 0.00 | 0.00 | 59 | 1014.0 |
| 20260508081531 | 11 | 89 | 9.7 | 9.7 | 0.00 | 0.00 | 0.00 | 59 | 1014.0 |
| 20260508081031 | 11 | 103 | 8.0 | 9.7 | 0.00 | 0.00 | 0.00 | 59 | 1014.0 |
| 20260508080531 | 11 | 59 | 4.8 | 6.4 | 0.00 | 0.00 | 0.00 | 58 | 1014.0 |
| 20260508080029 | 11 | 6 | 4.8 | 4.8 | 0.00 | 0.00 | 0.00 | 57 | 1014.0 |
| 20260508075531 | 11 | 9 | 0.0 | 1.6 | 0.00 | 0.00 | 0.00 | 58 | 1014.0 |
| 20260508075031 | 11 | 75 | 1.6 | 4.8 | 0.00 | 0.00 | 0.00 | 56 | 1014.0 |
| 20260508074531 | 12 | 0 | 0.0 | 0.0 | 0.00 | 0.00 | 0.00 | 56 | 1014.0 |
| 20260508074029 | 12 | 66 | 3.2 | 4.8 | 0.00 | 0.00 | 0.00 | 55 | 1014.0 |
| 20260508073531 | 12 | 73 | 1.6 | 4.8 | 0.00 | 0.00 | 0.00 | 54 | 1014.0 |
| 20260508073032 | 12 | 51 | 3.2 | 4.8 | 0.00 | 0.00 | 0.00 | 51 | 1014.0 |
| 20260508072529 | 12 | 0 | 0.0 | 0.0 | 0.00 | 0.00 | 0.00 | 51 | 1014.0 |
| 20260508072031 | 12 | 15 | 0.0 | 0.0 | 0.00 | 0.00 | 0.00 | 53 | 1014.0 |
| 20260508071531 | 12 | 64 | 0.0 | 1.6 | 0.00 | 0.00 | 0.00 | 55 | 1014.0 |
| 20260508071029 | 12 | 41 | 1.6 | 3.2 | 0.00 | 0.00 | 0.00 | 52 | 1014.0 |
| 20260508070531 | 12 | 78 | 6.4 | 6.4 | 0.00 | 0.00 | 0.00 | 55 | 1014.0 |
| 20260508070031 | 12 | 0 | 0.0 | 0.0 | 0.00 | 0.00 | 0.00 | 54 | 1014.0 |
| 20260508065530 | 12 | 83 | 0.0 | 0.0 | 0.00 | 0.00 | 0.00 | 53 | 1014.0 |
| 20260508065032 | 12 | 84 | 8.0 | 12.9 | 0.00 | 0.00 | 0.00 | 54 | 1014.0 |
| 20260508064532 | 13 | 109 | 0.0 | 0.0 | 0.00 | 0.00 | 0.00 | 52 | 1014.0 |
| 20260508064031 | 13 | 0 | 0.0 | 0.0 | 0.00 | 0.00 | 0.00 | 51 | 1014.0 |
| 20260508063531 | 13 | 0 | 0.0 | 0.0 | 0.00 | 0.00 | 0.00 | 47 | 1014.0 |
| 20260508063031 | 13 | 0 | 0.0 | 0.0 | 0.00 | 0.00 | 0.00 | 46 | 1014.0 |
| 20260508062532 | 13 | 0 | 0.0 | 0.0 | 0.00 | 0.00 | 0.00 | 46 | 1014.0 |
| 20260508062029 | 13 | 9 | 8.0 | 9.7 | 0.00 | 0.00 | 0.00 | 45 | 1014.0 |
| 20260508061530 | 13 | 0 | 6.4 | 8.0 | 0.00 | 0.00 | 0.00 | 46 | 1014.0 |
| 20260508061030 | 12 | 0 | 4.8 | 6.4 | 0.00 | 0.00 | 0.00 | 49 | 1014.0 |
| 20260508060532 | 12 | 0 | 0.0 | 0.0 | 0.00 | 0.00 | 0.00 | 51 | 1014.0 |
| 20260508060031 | 12 | 39 | 0.0 | 0.0 | 0.00 | 0.00 | 0.00 | 52 | 1014.0 |
| 20260508055529 | 12 | 0 | 0.0 | 0.0 | 0.00 | 0.00 | 0.00 | 51 | 1014.0 |
| 20260508055033 | 12 | 0 | 0.0 | 0.0 | 0.00 | 0.00 | 0.00 | 51 | 1014.0 |
| 20260508054533 | 13 | 59 | 4.8 | 6.4 | 0.00 | 0.00 | 0.00 | 51 | 1014.0 |
| 20260508054032 | 13 | 0 | 0.0 | 0.0 | 0.00 | 0.00 | 0.00 | 50 | 1014.0 |
| 20260508053531 | 13 | 0 | 0.0 | 0.0 | 0.00 | 0.00 | 0.00 | 50 | 1014.0 |
| 20260508053032 | 13 | 0 | 0.0 | 0.0 | 0.00 | 0.00 | 0.00 | 50 | 1014.0 |
| 20260508052529 | 13 | 0 | 0.0 | 0.0 | 0.00 | 0.00 | 0.00 | 50 | 1014.0 |
| 20260508052029 | 13 | 0 | 0.0 | 0.0 | 0.00 | 0.00 | 0.00 | 47 | 1014.0 |
| 20260508051529 | 13 | 0 | 0.0 | 0.0 | 0.00 | 0.00 | 0.00 | 47 | 1014.0 |
| 20260508051031 | 13 | 354 | 1.6 | 4.8 | 0.00 | 0.00 | 0.00 | 49 | 1014.0 |
| 20260508050532 | 14 | 4 | 0.0 | 3.2 | 0.00 | 0.00 | 0.00 | 46 | 1014.0 |
| 20260508050034 | 14 | 0 | 0.0 | 0.0 | 0.00 | 0.00 | 0.00 | 46 | 1014.0 |
| 20260508045529 | 14 | 13 | 4.8 | 8.0 | 0.00 | 0.00 | 0.00 | 45 | 1014.0 |
| 20260508045031 | 14 | 33 | 4.8 | 6.4 | 0.00 | 0.00 | 0.00 | 45 | 1014.0 |
| 20260508044529 | 14 | 0 | 0.0 | 0.0 | 0.00 | 0.00 | 0.00 | 45 | 1014.0 |
| 20260508044029 | 15 | 23 | 0.0 | 0.0 | 0.00 | 0.00 | 0.00 | 44 | 1014.0 |
| 20260508043529 | 15 | 45 | 6.4 | 6.4 | 0.00 | 0.00 | 0.00 | 44 | 1014.0 |
| 20260508043032 | 15 | 32 | 6.4 | 6.4 | 0.00 | 0.00 | 0.00 | 45 | 1014.0 |
| 20260508042529 | 15 | 43 | 6.4 | 6.4 | 0.00 | 0.00 | 0.00 | 44 | 1014.0 |
| 20260508042030 | 15 | 0 | 0.0 | 0.0 | 0.00 | 0.00 | 0.00 | 44 | 1014.0 |
| 20260508041532 | 15 | 29 | 6.4 | 6.4 | 0.00 | 0.00 | 0.00 | 44 | 1014.0 |
| 20260508041032 | 15 | 16 | 6.4 | 6.4 | 0.00 | 0.00 | 0.00 | 44 | 1014.0 |
| 20260508040531 | 15 | 27 | 8.0 | 8.0 | 0.00 | 0.00 | 0.00 | 43 | 1014.0 |
| 20260508040031 | 15 | 40 | 6.4 | 8.0 | 0.00 | 0.00 | 0.00 | 44 | 1014.0 |
| 20260508035532 | 15 | 35 | 6.4 | 8.0 | 0.00 | 0.00 | 0.00 | 44 | 1014.0 |
| 20260508035030 | 16 | 44 | 6.4 | 6.4 | 0.00 | 0.00 | 0.00 | 43 | 1014.0 |
| 20260508034530 | 16 | 53 | 4.8 | 6.4 | 0.00 | 0.00 | 0.00 | 44 | 1014.0 |
| 20260508034030 | 16 | 58 | 4.8 | 6.4 | 0.00 | 0.00 | 0.00 | 42 | 1014.0 |
| 20260508033531 | 16 | 54 | 3.2 | 4.8 | 0.00 | 0.00 | 0.00 | 42 | 1013.0 |
| 20260508033029 | 16 | 44 | 1.6 | 3.2 | 0.00 | 0.00 | 0.00 | 40 | 1013.0 |
| 20260508032532 | 17 | 31 | 6.4 | 6.4 | 0.00 | 0.00 | 0.00 | 38 | 1013.0 |
| 20260508032032 | 17 | 0 | 0.0 | 0.0 | 0.00 | 0.00 | 0.00 | 37 | 1013.0 |
| 20260508031531 | 17 | 0 | 0.0 | 0.0 | 0.00 | 0.00 | 0.00 | 38 | 1013.0 |
| 20260508031030 | 17 | 0 | 0.0 | 0.0 | 0.00 | 0.00 | 0.00 | 37 | 1013.0 |
| 20260508030530 | 17 | 0 | 0.0 | 0.0 | 0.00 | 0.00 | 0.00 | 35 | 1013.0 |
| 20260508030031 | 17 | 0 | 0.0 | 0.0 | 0.00 | 0.00 | 0.00 | 38 | 1013.0 |
| 20260508025530 | 17 | 0 | 0.0 | 0.0 | 0.00 | 0.00 | 0.00 | 36 | 1013.0 |
| 20260508025030 | 17 | 0 | 0.0 | 0.0 | 0.00 | 0.00 | 0.00 | 35 | 1013.0 |
| 20260508024530 | 18 | 0 | 0.0 | 0.0 | 0.00 | 0.00 | 0.00 | 34 | 1013.0 |
| 20260508024030 | 18 | 0 | 0.0 | 0.0 | 0.00 | 0.00 | 0.00 | 35 | 1013.0 |
| 20260508023529 | 18 | 332 | 9.7 | 14.5 | 0.00 | 0.00 | 0.00 | 34 | 1013.0 |
| 20260508023031 | 19 | 337 | 8.0 | 8.0 | 0.00 | 0.00 | 0.00 | 33 | 1013.0 |
| 20260508022529 | 20 | 354 | 11.3 | 12.9 | 0.00 | 0.00 | 0.00 | 32 | 1013.0 |
| 20260508022030 | 21 | 4 | 11.3 | 11.3 | 0.00 | 0.00 | 0.00 | 31 | 1013.0 |
| 20260508021531 | 22 | 357 | 11.3 | 12.9 | 0.00 | 0.00 | 0.00 | 28 | 1013.0 |
| 20260508021030 | 22 | 0 | 0.0 | 0.0 | 0.00 | 0.00 | 0.00 | 28 | 1013.0 |
| 20260508020529 | 22 | 342 | 0.0 | 1.6 | 0.00 | 0.00 | 0.00 | 27 | 1013.0 |
| 20260508020033 | 22 | 2 | 0.0 | 1.6 | 0.00 | 0.00 | 0.00 | 27 | 1013.0 |
| 20260508015530 | 22 | 4 | 1.6 | 6.4 | 0.00 | 0.00 | 0.00 | 25 | 1013.0 |
| 20260508015030 | 23 | 4 | 6.4 | 8.0 | 0.00 | 0.00 | 0.00 | 23 | 1013.0 |
| 20260508014530 | 23 | 349 | 9.7 | 11.3 | 0.00 | 0.00 | 0.00 | 22 | 1013.0 |
| 20260508014030 | 23 | 315 | 3.2 | 6.4 | 0.00 | 0.00 | 0.00 | 20 | 1013.0 |
| 20260508013529 | 23 | 296 | 3.2 | 4.8 | 0.00 | 0.00 | 0.00 | 20 | 1013.0 |
| 20260508013030 | 23 | 323 | 4.8 | 8.0 | 0.00 | 0.00 | 0.00 | 20 | 1013.0 |
| 20260508012530 | 22 | 347 | 4.8 | 8.0 | 0.00 | 0.00 | 0.00 | 22 | 1013.0 |
| 20260508012029 | 22 | 3 | 6.4 | 8.0 | 0.00 | 0.00 | 0.00 | 23 | 1013.0 |
| 20260508011532 | 22 | 14 | 8.0 | 9.7 | 0.00 | 0.00 | 0.00 | 23 | 1013.0 |
| 20260508011030 | 22 | 17 | 8.0 | 9.7 | 0.00 | 0.00 | 0.00 | 24 | 1013.0 |
| 20260508010530 | 22 | 351 | 6.4 | 8.0 | 0.00 | 0.00 | 0.00 | 24 | 1013.0 |
| 20260508010029 | 22 | 336 | 9.7 | 11.3 | 0.00 | 0.00 | 0.00 | 24 | 1013.0 |
| 20260508005530 | 22 | 335 | 6.4 | 9.7 | 0.00 | 0.00 | 0.00 | 22 | 1013.0 |
| 20260508005030 | 22 | 351 | 8.0 | 9.7 | 0.00 | 0.00 | 0.00 | 24 | 1013.0 |
| 20260508004532 | 22 | 24 | 11.3 | 14.5 | 0.00 | 0.00 | 0.00 | 23 | 1013.0 |
| 20260508004031 | 22 | 1 | 9.7 | 11.3 | 0.00 | 0.00 | 0.00 | 23 | 1013.0 |
| 20260508003531 | 22 | 343 | 12.9 | 14.5 | 0.00 | 0.00 | 0.00 | 23 | 1013.0 |
| 20260508003029 | 22 | 329 | 6.4 | 6.4 | 0.00 | 0.00 | 0.00 | 22 | 1013.0 |
| 20260508002529 | 22 | 350 | 0.0 | 0.0 | 0.00 | 0.00 | 0.00 | 21 | 1013.0 |
| 20260508002032 | 22 | 353 | 9.7 | 14.5 | 0.00 | 0.00 | 0.00 | 23 | 1013.0 |
| 20260508001531 | 22 | 342 | 8.0 | 14.5 | 0.00 | 0.00 | 0.00 | 23 | 1013.0 |
| 20260508001030 | 22 | 324 | 8.0 | 14.5 | 0.00 | 0.00 | 0.00 | 23 | 1013.0 |
| 20260508000531 | 22 | 335 | 6.4 | 9.7 | 0.00 | 0.00 | 0.00 | 22 | 1013.0 |
| 20260508000029 | 23 | 322 | 9.7 | 12.9 | 0.00 | 0.00 | 0.00 | 21 | 1013.0 |
| 20260507235530 | 23 | 320 | 6.4 | 12.9 | 0.00 | 0.00 | 0.00 | 22 | 1013.0 |
| 20260507235031 | 23 | 338 | 17.7 | 19.3 | 0.00 | 0.00 | 0.00 | 21 | 1013.0 |
| 20260507234530 | 23 | 348 | 8.0 | 12.9 | 0.00 | 0.00 | 0.00 | 21 | 1013.0 |
| 20260507234029 | 23 | 303 | 9.7 | 16.1 | 0.00 | 0.00 | 0.00 | 22 | 1014.0 |
| 20260507233529 | 23 | 20 | 17.7 | 24.1 | 0.00 | 0.00 | 0.00 | 21 | 1014.0 |
| 20260507233031 | 23 | 296 | 6.4 | 20.9 | 0.00 | 0.00 | 0.00 | 22 | 1014.0 |
| 20260507232530 | 23 | 310 | 11.3 | 20.9 | 0.00 | 0.00 | 0.00 | 21 | 1014.0 |
| 20260507232029 | 23 | 295 | 11.3 | 17.7 | 0.00 | 0.00 | 0.00 | 22 | 1014.0 |
| 20260507231531 | 23 | 199 | 3.2 | 9.7 | 0.00 | 0.00 | 0.00 | 22 | 1014.0 |
| 20260507231029 | 23 | 285 | 4.8 | 11.3 | 0.00 | 0.00 | 0.00 | 22 | 1014.0 |
| 20260507230529 | 23 | 335 | 11.3 | 16.1 | 0.00 | 0.00 | 0.00 | 21 | 1014.0 |
| 20260507230029 | 23 | 326 | 9.7 | 14.5 | 0.00 | 0.00 | 0.00 | 21 | 1014.0 |
| 20260507225530 | 23 | 302 | 20.9 | 32.2 | 0.00 | 0.00 | 0.00 | 21 | 1014.0 |
| 20260507225029 | 23 | 286 | 9.7 | 19.3 | 0.00 | 0.00 | 0.00 | 21 | 1014.0 |
| 20260507224531 | 23 | 22 | 14.5 | 32.2 | 0.00 | 0.00 | 0.00 | 22 | 1014.0 |
| 20260507224029 | 23 | 41 | 6.4 | 11.3 | 0.00 | 0.00 | 0.00 | 22 | 1014.0 |
| 20260507223529 | 23 | 299 | 14.5 | 29.0 | 0.00 | 0.00 | 0.00 | 22 | 1014.0 |
| 20260507223030 | 23 | 288 | 17.7 | 29.0 | 0.00 | 0.00 | 0.00 | 22 | 1014.0 |
| 20260507222529 | 23 | 325 | 12.9 | 19.3 | 0.00 | 0.00 | 0.00 | 21 | 1014.0 |
| 20260507222030 | 23 | 333 | 8.0 | 12.9 | 0.00 | 0.00 | 0.00 | 22 | 1014.0 |
| 20260507221529 | 23 | 324 | 8.0 | 9.7 | 0.00 | 0.00 | 0.00 | 22 | 1014.0 |
| 20260507221030 | 23 | 293 | 4.8 | 9.7 | 0.00 | 0.00 | 0.00 | 21 | 1014.0 |
| 20260507220529 | 23 | 237 | 1.6 | 8.0 | 0.00 | 0.00 | 0.00 | 22 | 1014.0 |
| 20260507220032 | 23 | 315 | 11.3 | 22.5 | 0.00 | 0.00 | 0.00 | 22 | 1014.0 |
| 20260507215530 | 23 | 318 | 11.3 | 14.5 | 0.00 | 0.00 | 0.00 | 20 | 1014.0 |
| 20260507215029 | 23 | 268 | 6.4 | 6.4 | 0.00 | 0.00 | 0.00 | 21 | 1014.0 |
| 20260507214529 | 23 | 210 | 1.6 | 4.8 | 0.00 | 0.00 | 0.00 | 22 | 1014.0 |
| 20260507214031 | 23 | 44 | 0.0 | 3.2 | 0.00 | 0.00 | 0.00 | 19 | 1014.0 |
| 20260507213531 | 23 | 267 | 3.2 | 6.4 | 0.00 | 0.00 | 0.00 | 22 | 1015.0 |
| 20260507213029 | 23 | 127 | 4.8 | 14.5 | 0.00 | 0.00 | 0.00 | 23 | 1015.0 |
| 20260507212530 | 23 | 133 | 4.8 | 12.9 | 0.00 | 0.00 | 0.00 | 24 | 1015.0 |
| 20260507212031 | 23 | 160 | 19.3 | 22.5 | 0.00 | 0.00 | 0.00 | 21 | 1015.0 |
| 20260507211529 | 23 | 289 | 4.8 | 12.9 | 0.00 | 0.00 | 0.00 | 21 | 1015.0 |
| 20260507211029 | 23 | 169 | 0.0 | 0.0 | 0.00 | 0.00 | 0.00 | 24 | 1015.0 |
| 20260507210530 | 22 | 307 | 8.0 | 16.1 | 0.00 | 0.00 | 0.00 | 21 | 1015.0 |
| 20260507210032 | 22 | 236 | 6.4 | 8.0 | 0.00 | 0.00 | 0.00 | 23 | 1015.0 |
| 20260507205531 | 22 | 45 | 6.4 | 8.0 | 0.00 | 0.00 | 0.00 | 21 | 1015.0 |
| 20260507205032 | 22 | 336 | 4.8 | 8.0 | 0.00 | 0.00 | 0.00 | 21 | 1015.0 |
| 20260507204530 | 21 | 222 | 6.4 | 6.4 | 0.00 | 0.00 | 0.00 | 23 | 1015.0 |
| 20260507204031 | 21 | 136 | 8.0 | 11.3 | 0.00 | 0.00 | 0.00 | 22 | 1015.0 |
| 20260507203532 | 21 | 114 | 9.7 | 12.9 | 0.00 | 0.00 | 0.00 | 23 | 1015.0 |